This demonstration page uses our WeatherBlox Daily Observations layout. Learn more.

Left ArrowRight Arrow

39.95238, -75.16362

Hourly Observations for April 4, 2015

Temp ( °F °C ) Dew Point ( °F °C ) Humidity (%) Winds ( mph kmh ) Pressure ( in mb ) Visibility ( mi km ) Precip ( " mm )
12:09 am 00:09 Cloudy with Mist and Fog 58 14.4 57 13.9 97 97 WNW 3 6 29.62 1003 3 5 0.00 0.00
12:27 am 00:27 Cloudy with Mist and Fog 58 14.4 57 13.9 97 97 NW 6 9 29.62 1003 3 4 0.00 0.00
12:54 am 00:54 Cloudy with Mist and Fog 57 13.9 57 13.9 100 100 Calm 29.61 1003 3 4 0.00 0.00
1:19 am 01:19 Cloudy with Mist and Fog 57 13.9 56 13.3 96 96 S 5 7 29.59 1002 3 5 0.00 0.00
1:30 am 01:30 Cloudy with Light Rain 57 14 55 13 94 94 VRB 5 7 29.59 1002 3 5 0.00 0.00
1:35 am 01:35 Cloudy with Mist and Fog 57 13.9 56 13.3 96 96 WSW 5 7 29.59 1002 5 8 0.00 0.03
1:54 am 01:54 Cloudy with Light Rain 57 13.9 56 13.3 96 96 SW 7 11 29.56 1001 5 8 0.00 0.03
2:03 am 02:03 Cloudy with Patchy Fog 58 14.4 56 13.3 93 93 SSW 9 15 29.56 1001 9 14 0.00 0.03
2:47 am 02:47 Cloudy 60 15.6 54 12.2 80 80 SW 20 31 29.53 1000 10 16 0.00 0.03
2:54 am 02:54 Cloudy 61 16.1 53 11.7 75 75 SW 21 33 29.53 1000 10 16 0.00 0.03
3:54 am 03:54 Cloudy 59 15 53 11.7 81 81 WSW 15 24 29.54 1001 10 16 0.00 0.00
4:54 am 04:54 Cloudy with Light Rain 59 15 50 10 72 72 W 25 41 29.61 1003 10 16 0.00 0.03
5:39 am 05:39 Cloudy with Light Rain 54 12.2 48 8.9 80 80 WNW 16 26 29.65 1004 10 16 0.00 0.03
5:49 am 05:49 Cloudy 54 12 46 8 77 77 WNW 18 30 29.68 1005 10 16 0.00 0.03
5:54 am 05:54 Cloudy 54 12.2 46 7.8 75 75 WNW 15 24 29.68 1005 10 16 0.00 0.03
6:29 am 06:29 Mostly Cloudy 52 11.1 41 5 66 66 NW 18 30 29.74 1007 10 16 0.00 0.00
6:54 am 06:54 Cloudy 52 11.1 40 4.4 64 64 WNW 12 19 29.76 1008 10 16 0.00 0.00
7:54 am 07:54 Partly Cloudy 51 10.6 38 3.3 61 61 NW 22 35 29.80 1009 10 16 0.00 0.00
8:54 am 08:54 Partly Cloudy 51 10.6 35 1.7 54 54 NW 21 33 29.84 1010 10 16 0.00 0.00
9:54 am 09:54 Partly Cloudy 53 11.7 32 0 45 45 NW 28 44 29.87 1012 10 16 0.00 0.00
10:54 am 10:54 Partly Cloudy 55 12.8 29 -1.7 37 37 WNW 28 44 29.91 1013 10 16 0.00 0.00
11:54 am 11:54 Partly Cloudy 56 13.3 25 -3.9 30 30 NW 25 41 29.93 1014 10 16 0.00 0.00
12:54 pm 12:54 Partly Cloudy 55 12.8 23 -5 29 29 WNW 22 35 29.96 1014 10 16 0.00 0.00
1:54 pm 13:54 Mostly Sunny 56 13.3 21 -6.1 26 26 WNW 25 41 29.98 1015 10 16 0.00 0.00
2:54 pm 14:54 Mostly Sunny 57 13.9 19 -7.2 23 23 NNW 28 44 29.97 1015 10 16 0.00 0.00
3:54 pm 15:54 Mostly Sunny 58 14.4 16 -8.9 19 19 WNW 25 41 29.99 1016 10 16 0.00 0.00
4:54 pm 16:54 Mostly Sunny 57 13.9 14 -10 18 18 NW 33 54 30.01 1016 10 16 0.00 0.00
5:54 pm 17:54 Mostly Sunny 57 13.9 10 -12.2 15 15 NW 32 52 30.04 1017 10 16 0.00 0.00
6:54 pm 18:54 Sunny 54 12.2 10 -12.2 17 17 NW 18 30 30.07 1018 10 16 0.00 0.00
7:54 pm 19:54 Clear 53 11.7 13 -10.6 20 20 WNW 14 22 30.10 1019 10 16 0.00 0.00
8:54 pm 20:54 Clear 52 11.1 15 -9.4 23 23 W 10 17 30.14 1021 10 16 0.00 0.00
9:54 pm 21:54 Clear 51 10.6 15 -9.4 24 24 W 10 17 30.17 1022 10 16 0.00 0.00
10:54 pm 22:54 Clear 46 7.8 18 -7.8 32 32 W 8 13 30.19 1022 10 16 0.00 0.00
11:54 pm 23:54 Mostly Clear 44 6.7 19 -7.2 37 37 WSW 8 13 30.20 1023 10 16 0.00 0.00

Powered by AerisWeather